FENGYUN 1C DEB, 37917

Orbit data source: Space-Track

FENGYUN 1C DEB, 37917 is space debris in SSO originally from a launch on Mon, 10 May 1999 UTC launched from the Taiyaun Space Center, China (TSC). Fengyun 1C debris stems from the Chinese weather satellite Fengyun-1C, which was intentionally destroyed by a Chinese anti-satellite missile in 2007. This event dramatically increased the amount of space debris, with thousands of trackable fragments posing hazards to satellites and human spaceflight. The Fengyun 1C debris cloud has become a focal point in discussions about space sustainability and the need for international regulations to prevent the creation of new debris.

Loading next visibility...
Identifier
37917, 1999-025ENS
Orbit
SSO
Country
Flag of CNCN / PRC
Related business
Manufacturer
Unknown
Mission
Spacecraft
Bus & Motor
Unknown
Mass
Unknown
Launch date (UTC)
1999-05-10 (27 years ago)
Launch vehicle
Unknown
Launch site
Taiyaun Space Center, China (TSC)
Object type
Payload
Rocket body
Debris
Shape & HBR
Unknown shape, 0.1 m
Radar Cross Section
Small (<0.1 m²)

Expand to show TLE details & history
Last TLE update: 9 months ago

TLE from 9 months ago
0 FENGYUN 1C DEB
1 37917U 99025ENS 25259.07929181  .00001389  00000-0  75620-3 0  9996
2 37917  98.9060 357.3256 0041270 292.1789  67.5007 14.13457197625857
Epoch: 2025-09-16T01:54Z
TLE epoch observation values (Epoch: 2025-09-16T01:54:10.812Z)
Latitude
0.00003°
Longitude
-26.4942°
Altitude
839.156 km
Speed
7.439 km/s
True Right ascension
23h 49m 18s
True Declination
0° 00' 00"
Sunlit
Object was in full shadow at epoch
Visualization orbit readout
Latitude
Unknown
Longitude
Unknown
Altitude
Unknown
Speed
Unknown
Apparent Right ascension
Unknown
Apparent Declination
Unknown
Sunlit
N/A
Visualization observer readout
Local Sidereal Time
23:50:27
Azimuth
Unknown
Elevation
Unknown
Doppler factor
Unknown
Orbital elements
Apogee altitude
874.551 km
Perigee altitude
814.933 km
Semi-major axis
7,222.879 km
Eccentricity
0.00413
Inclination
98.906°
RAAN
357.3256°
Arg. of periapsis
292.1789°
True anomaly
67.93848°
Mean anomaly
67.5007°
Eccentric anomaly
67.71951°
Mean motion
3.53572 °/min
Orbital period
101.82 mins
BSTAR
0.0007562
Loading maneuver chart data...
Computing Atmospheric mass density...

Documentation

Showing up to 5 results
|